Date String (YYYY-MM-DD hh:mm:ss) UTC,Instrument flags,absolute air pressure of the measurement (hPa),sample flow rate (lpm),inlet stack bypass flow (lpm),air temperature of the measurement (°C),ambient temperature measured by the external sensor (°C),aerosol sample conditioner tube jacket temperature (°C),OPC LED temperature (°C),internal box temperature (°C),relative humidity of the measurement (%),span deviation,mass concentration of particles derived from Lorenz-Mie calculation of OPC scattering (μg/m³),mass concentration of particles derived from Lorenz-Mie calculation of OPC scattering (μg/m³),mass concentration of particles derived from Lorenz-Mie calculation of OPC scattering (μg/m³)
DateTimeUTC,F1_M11,P_M11,Q1_M11,Q2_M11,T1_M11,T2_M11,T3_M11,T4_M11,T5_M11,U1_M11,ZSPAN_M11,X0_M11,X2_M11,X1_M11
2023-11-09 20:00:00,SystemResetWarning,0833.9,5.02,000.00,025.5,024.7,000.0,033.8,027.0,10.0,0000.0,0007.80,0003.50,0003.19
2023-11-09 20:01:00,SystemResetWarning,0834.0,5.00,000.00,025.5,024.7,000.0,033.8,027.0,9.9,0000.0,0007.84,0003.52,0003.21
2023-11-09 20:02:00,SystemResetWarning,0834.0,5.00,000.00,025.5,024.7,000.0,033.8,027.0,9.9,0000.0,0007.74,0003.53,0003.23
2023-11-09 20:03:00,SystemResetWarning,0834.0,5.00,000.00,025.5,024.7,000.0,033.8,027.0,10.0,0000.0,0006.87,0003.52,0003.24
2023-11-09 20:04:00,SystemResetWarning,0833.9,5.00,000.00,025.5,024.8,000.0,033.8,027.0,9.9,0000.0,0006.87,0003.55,0003.27
2023-11-09 20:05:00,SystemResetWarning,0833.9,5.00,000.00,025.6,024.7,000.0,033.8,027.0,9.9,0000.0,0006.98,0003.60,0003.30
2023-11-09 20:06:00,SystemResetWarning,0833.9,5.00,000.00,025.6,024.7,000.0,033.8,027.0,9.9,0000.0,0007.23,0003.66,0003.34
2023-11-09 20:07:00,SystemResetWarning,0833.9,5.00,000.00,025.6,024.8,000.0,033.8,027.0,9.8,0000.0,0007.32,0003.71,0003.39
2023-11-09 20:08:00,SystemResetWarning,0833.8,5.00,000.00,025.6,024.8,000.0,033.8,027.0,9.8,0000.0,0007.02,0003.74,0003.43
2023-11-09 20:09:00,SystemResetWarning,0833.8,5.00,000.00,025.6,024.8,000.0,033.8,027.0,9.9,0000.0,0006.86,0003.76,0003.45
2023-11-09 20:10:00,SystemResetWarning,0833.8,5.00,000.00,025.6,024.8,000.0,033.8,027.1,9.8,0000.0,0006.97,0003.79,0003.46
2023-11-09 20:11:00,SystemResetWarning,0833.8,5.00,000.00,025.6,024.8,000.0,033.8,027.0,9.8,0000.0,0006.46,0003.78,0003.46
2023-11-09 20:12:00,SystemResetWarning,0833.8,5.00,000.00,025.6,024.8,000.0,033.8,027.0,9.9,0000.0,0006.54,0003.78,0003.45
2023-11-09 20:13:00,SystemResetWarning,0833.8,5.00,000.00,025.6,024.8,000.0,033.8,027.0,9.9,0000.0,0006.57,0003.79,0003.45
2023-11-09 20:14:00,SystemResetWarning,0833.8,4.99,000.00,025.6,024.8,000.0,033.9,027.0,9.6,0000.0,0006.82,0003.83,0003.47
2023-11-09 20:15:00,SystemResetWarning,0833.7,4.99,000.00,025.6,024.8,000.0,033.9,027.0,9.6,0000.0,0007.56,0003.84,0003.47
2023-11-09 20:16:00,SystemResetWarning,0833.7,5.00,000.00,025.6,024.8,000.0,033.9,027.0,9.4,0000.0,0008.40,0003.83,0003.46
2023-11-09 20:17:00,SystemResetWarning,0833.8,5.00,000.00,025.6,024.8,000.0,033.9,027.0,9.2,0000.0,0008.39,0003.77,0003.43
2023-11-09 20:18:00,SystemResetWarning,0833.8,5.01,000.00,025.6,024.8,000.0,033.9,027.0,9.2,0000.0,0008.62,0003.74,0003.40
2023-11-09 20:19:00,SystemResetWarning,0833.7,5.00,000.00,025.6,024.8,000.0,033.9,027.0,9.2,0000.0,0008.57,0003.70,0003.38
2023-11-09 20:20:00,SystemResetWarning,0833.8,5.00,000.00,025.6,024.8,000.0,033.9,027.0,8.7,0000.0,0008.50,0003.70,0003.37
2023-11-09 20:21:00,SystemResetWarning,0833.8,5.00,000.00,025.6,024.8,000.0,033.9,027.0,9.0,0000.0,0008.36,0003.70,0003.35
2023-11-09 20:22:00,SystemResetWarning,0833.8,5.00,000.00,025.6,024.8,000.0,033.9,027.1,9.2,0000.0,0008.17,0003.68,0003.34
2023-11-09 20:23:00,SystemResetWarning,0833.8,4.99,000.00,025.6,024.8,000.0,033.9,027.0,9.5,0000.0,0008.19,0003.68,0003.33
2023-11-09 20:24:00,SystemResetWarning,0833.8,5.00,000.00,025.6,024.8,000.0,033.9,027.0,9.8,0000.0,0008.20,0003.68,0003.31
2023-11-09 20:25:00,SystemResetWarning,0833.8,5.00,000.00,025.6,024.8,000.0,033.9,027.1,10.0,0000.0,0008.80,0003.66,0003.29
2023-11-09 20:26:00,SystemResetWarning,0833.7,5.00,000.00,025.6,024.8,000.0,033.9,027.0,10.0,0000.0,0008.55,0003.67,0003.30
2023-11-09 20:27:00,SystemResetWarning,0833.8,4.99,000.00,025.6,024.8,000.0,033.9,027.0,10.2,0000.0,0007.63,0003.66,0003.31
2023-11-09 20:28:00,SystemResetWarning,0833.8,5.00,000.00,025.6,024.8,000.0,033.9,027.1,10.3,0000.0,0007.60,0003.69,0003.34
2023-11-09 20:29:00,SystemResetWarning,0833.8,5.00,000.00,025.6,024.8,000.0,033.9,027.1,10.1,0000.0,0007.29,0003.72,0003.37
2023-11-09 20:30:00,SystemResetWarning,0833.8,5.01,000.00,025.6,024.8,000.0,033.9,027.0,9.8,0000.0,0007.36,0003.77,0003.40
2023-11-09 20:31:00,SystemResetWarning,0833.8,5.00,000.00,025.6,024.8,000.0,033.9,027.1,9.7,0000.0,0007.42,0003.80,0003.42
2023-11-09 20:32:00,SystemResetWarning,0833.8,5.00,000.00,025.6,024.8,000.0,033.9,027.0,9.7,0000.0,0007.39,0003.81,0003.42
2023-11-09 20:33:00,SystemResetWarning,0833.8,5.00,000.00,025.6,024.8,000.0,033.9,027.0,9.7,0000.0,0007.51,0003.87,0003.46
2023-11-09 20:34:00,SystemResetWarning,0833.8,5.00,000.00,025.6,024.8,000.0,033.9,027.1,9.4,0000.0,0008.14,0003.91,0003.49
2023-11-09 20:35:00,SystemResetWarning,0833.8,4.99,000.00,025.6,024.8,000.0,033.9,027.0,9.3,0000.0,0008.30,0003.93,0003.53
2023-11-09 20:36:00,SystemResetWarning,0833.8,5.01,000.00,025.6,024.8,000.0,033.9,027.0,9.3,0000.0,0008.34,0003.96,0003.56
2023-11-09 20:37:00,SystemResetWarning,0833.8,5.00,000.00,025.6,024.8,000.0,033.9,027.1,9.4,0000.0,0008.16,0003.96,0003.56
2023-11-09 20:38:00,SystemResetWarning,0833.8,5.01,000.00,025.6,024.8,000.0,033.9,027.0,9.4,0000.0,0008.17,0003.96,0003.55
2023-11-09 20:39:00,SystemResetWarning,0833.8,5.00,000.00,025.7,024.8,000.0,033.9,027.1,9.7,0000.0,0008.23,0003.97,0003.52
2023-11-09 20:40:00,SystemResetWarning,0833.8,5.00,000.00,025.7,024.8,000.0,033.9,027.1,9.7,0000.0,0008.19,0003.94,0003.50
2023-11-09 20:41:00,SystemResetWarning,0833.8,5.00,000.00,025.7,024.8,000.0,033.9,027.1,9.8,0000.0,0008.20,0003.94,0003.49
2023-11-09 20:42:00,SystemResetWarning,0833.8,5.00,000.00,025.7,024.8,000.0,034.0,027.1,9.9,0000.0,0008.16,0003.92,0003.48
2023-11-09 20:43:00,SystemResetWarning,0833.7,5.01,000.00,025.7,024.8,000.0,034.0,027.1,9.9,0000.0,0008.16,0003.92,0003.50
2023-11-09 20:44:00,SystemResetWarning,0833.8,5.00,000.00,025.7,024.8,000.0,034.0,027.1,10.0,0000.0,0008.26,0003.90,0003.50
2023-11-09 20:45:00,SystemResetWarning,0833.8,5.00,000.00,025.7,024.9,000.0,034.0,027.1,9.9,0000.0,0008.00,0003.90,0003.51
2023-11-09 20:46:00,SystemResetWarning,0833.8,5.00,000.00,025.7,024.9,000.0,034.0,027.1,10.0,0000.0,0008.41,0003.93,0003.53
2023-11-09 20:47:00,SystemResetWarning,0833.7,5.00,000.00,025.7,024.9,000.0,034.0,027.1,9.7,0000.0,0008.46,0003.97,0003.55
2023-11-09 20:48:00,SystemResetWarning,0833.7,5.00,000.00,025.7,024.9,000.0,034.0,027.1,9.5,0000.0,0008.56,0004.01,0003.58
2023-11-09 20:49:00,SystemResetWarning,0833.8,5.00,000.00,025.7,024.9,000.0,034.0,027.1,9.7,0000.0,0008.88,0004.04,0003.61
2023-11-09 20:50:00,SystemResetWarning,0833.7,5.00,000.00,025.7,024.9,000.0,034.0,027.1,9.8,0000.0,0009.12,0004.09,0003.64
2023-11-09 20:51:00,SystemResetWarning,0833.8,5.00,000.00,025.7,024.9,000.0,034.0,027.2,9.8,0000.0,0009.24,0004.13,0003.67
2023-11-09 20:52:00,SystemResetWarning,0833.8,5.00,000.00,025.7,024.9,000.0,034.0,027.1,9.7,0000.0,0009.42,0004.15,0003.69
2023-11-09 20:53:00,SystemResetWarning,0833.8,5.00,000.00,025.7,024.9,000.0,034.0,027.1,9.8,0000.0,0010.15,0004.16,0003.71
2023-11-09 20:54:00,SystemResetWarning,0833.8,5.00,000.00,025.7,024.9,000.0,034.0,027.1,9.7,0000.0,0010.10,0004.13,0003.70
2023-11-09 20:55:00,SystemResetWarning,0833.8,5.01,000.00,025.7,024.9,000.0,034.0,027.1,9.7,0000.0,0009.99,0004.14,0003.69
2023-11-09 20:56:00,SystemResetWarning,0833.8,5.00,000.00,025.7,024.9,000.0,034.0,027.0,9.6,0000.0,0009.72,0004.14,0003.68
2023-11-09 20:57:00,SystemResetWarning,0833.8,5.01,000.00,025.7,024.9,000.0,034.0,027.0,9.7,0000.0,0009.37,0004.13,0003.68
2023-11-09 20:58:00,SystemResetWarning,0833.8,5.00,000.00,025.7,024.9,000.0,034.0,027.0,9.8,0000.0,0009.27,0004.10,0003.67
2023-11-09 20:59:00,SystemResetWarning,0833.7,5.00,000.00,025.7,024.9,000.0,034.0,027.0,9.8,0000.0,0008.98,0004.08,0003.66
